STARLINK-3660, 51977

Orbit data source: Space-Track

STARLINK-3660, 51977 is a payload satellite owned by SpaceX/Seattle (US) in LEO that was launched on Wed, 09 Mar 2022 UTC via an FALCON 9 launch vehicle from the Air Force Eastern Test Range (AFETR). Payload-class satellites include a variety of spacecraft equipped with specific instruments for various scientific and technological missions. These include communications satellites like Starlink; space stations such as the ISS; scientific satellites like the Hubble; Earth observation satellites from companies like Planet Labs, Umbra, and HawkEye 360; GPS; miniature CubeSats for education and research; and military/defense satellites.

Loading next visibility...
Identifier
51977, 2022-025X
Orbit
LEO
Country
Flag of USUS
Related business
Manufacturer
SpaceX/Seattle
Mission
Operational Commercial Communications
Bus & Motor
STARLINK, Unknown motor
Mass
297 kg wet, ~275 kg dry
Launch date (UTC)
2022-03-09 (4 years ago)
Launch vehicle
FALCON 9
Launch site
Air Force Eastern Test Range (AFETR)
Object type
Payload
Rocket body
Debris
Shape & HBR
Box + 1 Pan, 10.1 m
Radar Cross Section
13.562 m², Large (>1 m²)

Expand to show TLE details & history
Last TLE update: 2 days ago

TLE from 2 days ago
0 STARLINK-3660
1 51977U 22025X   26171.29023772  .00000328  00000-0  38700-4 0  9994
2 51977  53.1599 278.4222 0001091  60.0538 300.0562 15.08827575236828
Epoch: 2026-06-20T06:57Z
TLE epoch observation values (Epoch: 2026-06-20T06:57:56.539Z)
Latitude
0.00003°
Longitude
-94.57034°
Altitude
540.295 km
Speed
7.594 km/s
True Right ascension
18h 33m 41s
True Declination
0° 00' 00"
Sunlit
Object was in full shadow at epoch
Visualization orbit readout
Latitude
Unknown
Longitude
Unknown
Altitude
Unknown
Speed
Unknown
Apparent Right ascension
Unknown
Apparent Declination
Unknown
Sunlit
N/A
Visualization observer readout
Local Sidereal Time
21:49:45
Azimuth
Unknown
Elevation
Unknown
Doppler factor
Unknown
Orbital elements
Apogee altitude
540.79 km
Perigee altitude
539.281 km
Semi-major axis
6,918.173 km
Eccentricity
0.00011
Inclination
53.1599°
RAAN
278.4222°
Arg. of periapsis
60.0538°
True anomaly
300.04538°
Mean anomaly
300.0562°
Eccentric anomaly
300.05079°
Mean motion
3.77186 °/min
Orbital period
95.44 mins
BSTAR
0.0000387
Loading maneuver chart data...
Computing Atmospheric mass density...

Documentation

Showing up to 5 results
|